This demonstration page uses our WeatherBlox Daily Observations layout. Learn more.

Left ArrowRight Arrow

41.86663, -103.66717

Hourly Observations for September 25, 2015

Temp ( °F °C ) Dew Point ( °F °C ) Humidity (%) Winds ( mph kmh ) Pressure ( in mb ) Visibility ( mi km ) Precip ( " mm )
12:53 am 00:53 Clear 55 12.8 52 11.1 90 90 E 7 11 30.23 1024 10 16.0934 0 0
1:53 am 01:53 Clear 55 12.8 52 11.1 90 90 E 7 11 30.22 1023 10 16.0934 0 0
2:53 am 02:53 Clear 53 11.7 51 10.6 93 93 Calm 30.21 1023 10 16.0934 0 0
3:53 am 03:53 Clear 51 10.6 49 9.4 92 92 ENE 5 7 30.2 1023 10 16.0934 0 0
4:53 am 04:53 Clear 50 10 48 8.9 93 93 ESE 5 7 30.19 1023 10 16.0934 0 0
5:10 am 05:10 Partly Cloudy 50 10 48 9 94 94 SE 3 6 30.27 1025 10 16.0934 0 0
5:18 am 05:18 Mostly Cloudy 50 10 48 9 94 94 ESE 3 6 30.27 1025 10 16.0934 0 0
5:35 am 05:35 Cloudy with Mist and Fog 50 10 49 9.4 96 96 SE 3 6 30.27 1025 5 8.0467 0 0
5:53 am 05:53 Cloudy with Mist and Fog 51 10.6 49 9.4 92 92 Calm 30.21 1023 2.5 4.02335 0 0
5:59 am 05:59 Cloudy with Mist and Fog 50 10 50 10 100 100 Calm 30.27 1025 0.75 1.207005 0 0
6:10 am 06:10 Mostly Cloudy with Fog 52 11 50 10 94 94 ESE 5 7 30.24 1024 0.5 0.80467 0 0
6:19 am 06:19 Mostly Cloudy with Fog 51 10.6 50 10 96 96 Calm 30.24 1024 0.25 0.402335 0 0
6:53 am 06:53 Mostly Cloudy with Fog 51 10.6 51 10.6 100 100 ESE 6 9 30.23 1024 5 8.0467 0 0
7:53 am 07:53 Mostly Cloudy with Fog 51 10.6 51 10.6 100 100 SE 5 7 30.24 1024 5 8.0467 0 0
8:53 am 08:53 Mostly Cloudy with Fog 52 11.1 52 11.1 100 100 ESE 6 9 30.24 1024 5 8.0467 0 0
9:43 am 09:43 Mostly Cloudy with Fog 55 12.8 54 12.2 96 96 ESE 12 19 30.24 1024 0.5 0.80467 0 0
9:53 am 09:53 Mostly Cloudy with Fog 55 12.8 54 12.2 96 96 ESE 10 17 30.25 1024 0.25 0.402335 0 0
10:07 am 10:07 Mostly Cloudy with Fog 55 12.8 54 12.2 96 96 ESE 12 19 30.21 1023 0.5 0.80467 0 0
10:26 am 10:26 Cloudy with Mist and Fog 56 13.3 55 12.8 97 97 ESE 9 15 30.21 1023 1.5 2.41401 0 0
10:38 am 10:38 Cloudy with Mist and Fog 55 13 55 13 100 100 ESE 9 15 30.21 1023 2.5 4.02335 0 0
10:45 am 10:45 Cloudy with Mist and Fog 57 13.9 55 12.8 93 93 E 8 13 30.21 1023 4 6.43736 0 0
10:53 am 10:53 Cloudy with Mist and Fog 58 14.4 55 12.8 90 90 E 12 19 30.25 1024 6 9.65604 0 0
11:49 am 11:49 Cloudy 61 16 55 13 83 83 E 10 17 30.18 1022 8 12.87472 0 0
11:53 am 11:53 Cloudy 60 15.6 56 13.3 86 86 SE 9 15 30.24 1024 8 12.87472 0 0
12:32 pm 12:32 Partly Cloudy 66 19 55 13 68 68 SE 9 15 30.12 1020 10 16.0934 0 0
12:53 pm 12:53 Sunny 67 19.4 56 13.3 68 68 E 9 15 30.2 1023 10 16.0934 0 0
1:53 pm 13:53 Sunny 73 22.8 55 12.8 53 53 ESE 9 15 30.15 1021 10 16.0934 0 0
2:53 pm 14:53 Sunny 75 23.9 52 11.1 45 45 SE 10 17 30.13 1020 10 16.0934 0 0
3:53 pm 15:53 Sunny 77 25 51 10.6 40 40 SE 10 17 30.11 1020 10 16.0934 0 0
4:53 pm 16:53 Sunny 76 24.4 51 10.6 42 42 ESE 13 20 30.1 1019 10 16.0934 0 0
5:53 pm 17:53 Sunny 74 23.3 51 10.6 45 45 SE 10 17 30.1 1019 10 16.0934 0 0
6:53 pm 18:53 Clear 66 18.9 52 11.1 61 61 ESE 6 9 30.12 1020 10 16.0934 0 0
7:53 pm 19:53 Clear 64 17.8 52 11.1 65 65 ESE 12 19 30.14 1021 10 16.0934 0 0
8:53 pm 20:53 Clear 59 15 53 11.7 81 81 ESE 8 13 30.17 1022 10 16.0934 0 0
9:53 pm 21:53 Clear 57 13.9 53 11.7 87 87 ESE 8 13 30.19 1022 10 16.0934 0 0
10:53 pm 22:53 Clear 56 13.3 53 11.7 90 90 ESE 9 15 30.19 1022 10 16.0934 0 0
11:53 pm 23:53 Clear 55 13 54 12 94 94 ESE 10 17 30.15 1021 10 16.0934 0 0

Powered by AerisWeather